DW1384 Weather Reports


time (UTC)temp
C
wind
direction
speed
KPH
gust
KPH
rain 1hr
cm
rain 24hr
cm
rain mn
cm
humidity
%
barometer
mb
20260509182723 18 22 0.0 0.0 0.00 0.00 0.00 56 1014.7
20260509182221 18 10 0.0 0.0 0.00 0.00 0.00 55 1014.8
20260509181723 18 10 0.0 0.0 0.00 0.00 0.00 55 1014.6
20260509181221 18 343 0.0 0.0 0.00 0.00 0.00 54 1014.6
20260509180735 18 287 0.0 0.0 0.00 0.00 0.00 52 1014.9
20260509180224 18 242 0.0 0.0 0.00 0.00 0.00 49 1014.8
20260509175721 18 210 0.0 0.0 0.00 0.00 0.00 48 1014.8
20260509175221 18 210 0.0 0.0 0.00 0.00 0.00 48 1014.7
20260509174721 19 210 0.0 0.0 0.00 0.00 0.00 52 1014.6
20260509174221 19 210 0.0 0.0 0.00 0.00 0.00 51 1014.6
20260509173721 19 210 0.0 0.0 0.00 0.00 0.00 46 1014.6
20260509173654 18 210 0.0 0.0 0.00 0.00 0.00 48 1014.6
20260509172722 18 199 0.0 0.0 0.00 0.00 0.00 48 1014.7
20260509172222 18 127 0.0 0.0 0.00 0.00 0.00 50 1014.8
20260509171722 18 127 0.0 0.0 0.00 0.00 0.00 51 1014.8
20260509171222 19 127 0.0 0.0 0.00 0.00 0.00 49 1014.8
20260509170941 19 127 0.0 0.0 0.00 0.00 0.00 47 1014.6
20260509170221 19 127 0.0 0.0 0.00 0.00 0.00 46 1014.7
20260509165721 19 127 0.0 0.0 0.00 0.00 0.00 46 1014.6
20260509165220 19 127 0.0 0.0 0.00 0.00 0.00 46 1014.6
20260509164720 19 127 0.0 0.0 0.00 0.00 0.00 44 1014.7
20260509164215 19 123 0.0 0.0 0.00 0.00 0.00 43 1014.6
20260509163715 19 164 0.0 0.0 0.00 0.00 0.00 44 1014.8
20260509163216 19 143 0.0 0.0 0.00 0.00 0.00 44 1014.8
20260509162717 20 178 0.0 0.0 0.00 0.00 0.00 43 1014.9
20260509162214 20 188 0.0 0.0 0.00 0.00 0.00 42 1015.0
20260509161713 20 158 0.0 0.0 0.00 0.00 0.00 43 1014.9
20260509161434 19 158 0.0 0.0 0.00 0.00 0.00 44 1014.9
20260509160935 19 161 0.0 0.0 0.00 0.00 0.00 44 1015.0
20260509160214 19 175 0.0 0.0 0.00 0.00 0.00 44 1015.0
20260509155713 19 138 0.0 0.0 0.00 0.00 0.00 44 1015.0
20260509155213 19 161 0.0 0.0 0.00 0.00 0.00 45 1015.1
20260509154713 19 191 0.0 0.0 0.00 0.00 0.00 43 1015.2
20260509154213 20 138 0.0 0.0 0.00 0.00 0.00 43 1015.2
20260509154159 19 155 0.0 0.0 0.00 0.00 0.00 43 1015.2
20260509153213 19 160 0.0 0.0 0.00 0.00 0.00 43 1015.3
20260509152715 19 186 0.0 0.0 0.00 0.00 0.00 45 1015.4
20260509152211 19 127 0.0 0.0 0.00 0.00 0.00 45 1015.4
20260509151711 19 180 0.0 0.0 0.00 0.00 0.00 44 1015.4
20260509151429 19 168 0.0 0.0 0.00 0.00 0.00 44 1015.4
20260509150707 19 165 0.0 0.0 0.00 0.00 0.00 46 1015.5
20260509150207 19 111 0.0 0.0 0.00 0.00 0.00 46 1015.5
20260509145708 18 141 0.0 0.0 0.00 0.00 0.00 46 1015.6
20260509145209 18 178 0.0 0.0 0.00 0.00 0.00 45 1015.6
20260509144929 18 157 0.0 0.0 0.00 0.00 0.00 46 1015.6
20260509144207 18 172 0.0 0.0 0.00 0.00 0.00 46 1015.7
20260509143707 18 162 0.0 0.0 0.00 0.00 0.00 46 1015.7
20260509143208 19 174 0.0 0.0 0.00 0.00 0.00 45 1015.8
20260509142709 19 86 0.0 0.0 0.00 0.00 0.00 45 1015.8
20260509142425 19 84 0.0 0.0 0.00 0.00 0.00 44 1015.9
20260509141930 20 135 0.0 0.0 0.00 0.00 0.00 42 1016.0
20260509141209 20 288 0.0 0.0 0.00 0.00 0.00 42 1016.0
20260509140708 20 282 0.0 0.0 0.00 0.00 0.00 43 1016.0
20260509140208 19 210 0.0 0.0 0.00 0.00 0.00 46 1016.0
20260509135707 19 209 0.0 0.0 0.00 0.00 0.00 46 1016.1
20260509135428 19 256 0.0 0.0 0.00 0.00 0.00 48 1016.1
20260509134707 18 169 0.0 0.0 0.00 0.00 0.00 48 1016.1
20260509134209 18 145 0.0 0.0 0.00 0.00 0.00 50 1016.1
20260509133707 18 172 0.0 0.0 0.00 0.00 0.00 50 1016.3
20260509133209 18 173 0.0 0.0 0.00 0.00 0.00 48 1016.3
20260509132707 18 174 0.0 0.0 0.00 0.00 0.00 48 1016.4
20260509132209 18 182 0.0 0.0 0.00 0.00 0.00 49 1016.5
20260509131707 18 76 0.0 0.0 0.00 0.00 0.00 49 1016.5
20260509131207 18 95 0.0 0.0 0.00 0.00 0.00 48 1016.6
20260509130928 18 114 0.0 0.0 0.00 0.00 0.00 48 1016.7
20260509130207 18 117 0.0 0.0 0.00 0.00 0.00 50 1016.7
20260509125707 18 99 0.0 0.0 0.00 0.00 0.00 49 1016.8
20260509125207 18 91 0.0 0.0 0.00 0.00 0.00 48 1017.0
20260509124709 18 80 0.0 0.0 0.00 0.00 0.00 48 1017.0
20260509124207 18 41 0.0 0.0 0.00 0.00 0.00 48 1017.1
20260509123709 18 78 0.0 0.0 0.00 0.00 0.00 49 1017.2
20260509123207 17 82 0.0 0.0 0.00 0.00 0.00 49 1017.2
20260509122709 18 153 0.0 0.0 0.00 0.00 0.00 49 1017.2
20260509122207 17 118 0.0 0.0 0.00 0.00 0.00 49 1017.3
20260509121708 17 272 0.0 0.0 0.00 0.00 0.00 49 1017.4
20260509121208 17 272 0.0 0.0 0.00 0.00 0.00 48 1017.4
20260509120707 18 280 0.0 0.0 0.00 0.00 0.00 47 1017.5
20260509120427 17 185 0.0 0.0 0.00 0.00 0.00 48 1017.5
20260509115709 17 177 0.0 0.0 0.00 0.00 0.00 49 1017.5
20260509115207 17 174 0.0 0.0 0.00 0.00 0.00 49 1017.5
20260509114929 17 156 0.0 0.0 0.00 0.00 0.00 51 1017.6
20260509114208 17 238 0.0 0.0 0.00 0.00 0.00 50 1017.6
20260509113931 17 195 0.0 0.0 0.00 0.00 0.00 52 1017.6
20260509113207 17 149 0.0 0.0 0.00 0.00 0.00 51 1017.6
20260509112707 17 177 0.0 0.0 0.00 0.00 0.00 51 1017.7
20260509112208 17 157 0.0 0.0 0.00 0.00 0.00 51 1017.7
20260509111707 17 118 0.0 0.0 0.00 0.00 0.00 52 1017.8
20260509111426 17 91 0.0 0.0 0.00 0.00 0.00 52 1017.9
20260509111152 16 136 0.0 0.0 0.00 0.00 0.00 54 1018.0
20260509110207 16 118 0.0 0.0 0.00 0.00 0.00 53 1018.0
20260509105707 16 89 0.0 0.0 0.00 0.00 0.00 54 1018.0
20260509105427 16 145 0.0 0.0 0.00 0.00 0.00 54 1018.1
20260509104930 16 131 0.0 0.0 0.00 0.00 0.00 55 1018.2
20260509104207 16 124 0.0 0.0 0.00 0.00 0.00 55 1018.2
20260509103705 16 201 0.0 0.0 0.00 0.00 0.00 55 1018.3
20260509103206 16 242 0.0 0.0 0.00 0.00 0.00 56 1018.3
20260509102703 16 201 0.0 0.0 0.00 0.00 0.00 58 1018.3
20260509102201 16 199 0.0 0.0 0.00 0.00 0.00 57 1018.3
20260509101701 16 125 0.0 0.0 0.00 0.00 0.00 57 1018.3
20260509101159 16 133 0.0 0.0 0.00 0.00 0.00 58 1018.2
20260509100700 16 187 0.0 0.0 0.00 0.00 0.00 57 1018.2
20260509100156 16 180 0.0 0.0 0.00 0.00 0.00 58 1018.3
20260509095657 16 101 0.0 0.0 0.00 0.00 0.00 58 1018.3
20260509095157 16 80 0.0 0.0 0.00 0.00 0.00 58 1018.3
20260509094658 16 131 0.0 0.0 0.00 0.00 0.00 62 1018.3
20260509094159 16 143 0.0 0.0 0.00 0.00 0.00 60 1018.3
20260509093657 16 166 0.0 0.0 0.00 0.00 0.00 59 1018.3
20260509093415 16 186 0.0 0.0 0.00 0.00 0.00 58 1018.3
20260509092928 16 128 0.0 0.0 0.00 0.00 0.00 59 1018.4
20260509092157 16 268 0.0 0.0 0.00 0.00 0.00 59 1018.4
20260509091921 16 291 0.0 0.0 0.00 0.00 0.00 60 1018.4
20260509091153 16 314 0.0 0.0 0.00 0.00 0.00 60 1018.4
20260509090651 16 328 0.0 0.0 0.00 0.00 0.00 61 1018.4
20260509090151 16 337 0.0 0.0 0.00 0.00 0.00 61 1018.4
20260509085653 16 338 0.0 0.0 0.00 0.00 0.00 64 1018.4
20260509085150 16 259 0.0 0.0 0.00 0.00 0.00 64 1018.4
20260509084904 15 133 0.0 0.0 0.00 0.00 0.00 66 1018.5
20260509084143 15 183 0.0 0.0 0.00 0.00 0.00 69 1018.5
20260509083636 15 199 0.0 0.0 0.00 0.00 0.00 71 1018.6
20260509083359 15 213 0.0 0.0 0.00 0.00 0.00 72 1018.5
20260509082623 15 136 0.0 0.0 0.00 0.00 0.00 75 1018.6
20260509082116 14 126 0.0 0.0 0.00 0.00 0.00 76 1018.6
20260509081612 13 174 0.0 0.0 0.00 0.00 0.00 78 1018.7
20260509081105 13 174 0.0 0.0 0.00 0.00 0.00 79 1018.7
20260509080600 12 174 0.0 0.0 0.00 0.00 0.00 80 1018.7
20260509080105 12 185 0.0 0.0 0.00 0.00 0.00 80 1018.7
20260509075546 12 228 0.0 0.0 0.00 0.00 0.00 81 1018.8
20260509075041 12 231 0.0 0.0 0.00 0.00 0.00 81 1018.8
20260509074757 13 231 0.0 0.0 0.00 0.00 0.00 82 1018.8
20260509074029 13 5 0.0 0.0 0.00 0.00 0.00 84 1018.8
20260509073744 12 5 0.0 0.0 0.00 0.00 0.00 85 1018.9
20260509073458 12 5 0.0 0.0 0.00 0.00 0.00 86 1018.9
20260509072729 11 5 0.0 0.0 0.00 0.00 0.00 88 1018.9
20260509072005 11 5 0.0 0.0 0.00 0.00 0.00 88 1019.0
20260509071500 10 93 0.0 0.0 0.00 0.00 0.00 89 1019.0
20260509070953 10 108 0.0 0.0 0.00 0.00 0.00 90 1019.0
20260509070446 9 109 0.0 0.0 0.00 0.00 0.00 90 1019.0
20260509065940 9 111 0.0 0.0 0.00 0.00 0.00 91 1019.1
20260509065636 8 111 0.0 0.0 0.00 0.00 0.00 91 1019.0
20260509065521 8 111 0.0 0.0 0.00 0.00 0.00 91 1019.0
20260509064425 8 111 0.0 0.0 0.00 0.00 0.00 91 1019.0
20260509063916 7 111 0.0 0.0 0.00 0.00 0.00 91 1019.0
20260509063632 7 111 0.0 0.0 0.00 0.00 0.00 91 1018.9
20260509062907 7 114 0.0 0.0 0.00 0.00 0.00 91 1019.0
20260509062358 6 119 0.0 0.0 0.00 0.00 0.00 91 1019.0
20260509061853 6 119 0.0 0.0 0.00 0.00 0.00 91 1019.1
20260509061609 6 119 0.0 0.0 0.00 0.00 0.00 91 1019.0
20260509061104 6 119 0.0 0.0 0.00 0.00 0.00 91 1019.1
20260509060334 5 119 0.0 0.0 0.00 0.00 0.00 91 1019.2
20260509055830 5 119 0.0 0.0 0.00 0.00 0.00 91 1019.2
20260509055323 4 119 0.0 0.0 0.00 0.00 0.00 91 1019.3
20260509054823 4 119 0.0 0.0 0.00 0.00 0.00 91 1019.2
20260509054321 3 119 0.0 0.0 0.00 0.00 0.00 91 1019.2
20260509053821 3 119 0.0 0.0 0.00 0.00 0.00 91 1019.2
20260509053542 3 119 0.0 0.0 0.00 0.00 0.00 90 1019.1
20260509052820 3 119 0.0 0.0 0.00 0.00 0.00 90 1019.1
20260509052322 3 119 0.0 0.0 0.00 0.00 0.00 90 1019.0
20260509051820 3 119 0.0 0.0 0.00 0.00 0.00 90 1019.0
20260509051321 3 119 0.0 0.0 0.00 0.00 0.00 91 1019.0
20260509050821 3 119 0.0 0.0 0.00 0.00 0.00 90 1019.0
20260509050321 3 119 0.0 0.0 0.00 0.00 0.00 90 1019.0
20260509045821 3 119 0.0 0.0 0.00 0.00 0.00 90 1018.9
20260509045321 3 119 0.0 0.0 0.00 0.00 0.00 91 1018.9
20260509044821 2 119 0.0 0.0 0.00 0.00 0.00 90 1018.9
20260509044318 2 119 0.0 0.0 0.00 0.00 0.00 90 1018.8
20260509043815 -17 0.0 0.0 0.00 0.00 0.00 1018.8
20260509043310 -17 0.0 0.0 0.00 0.00 0.00 1018.8
20260509042949 -17 0.0 0.0 0.00 0.00 0.00 1018.8
20260509042208 -17 0.0 0.0 0.00 0.00 0.00 1018.8
20260509041625 2 0.0 0.0 0.00 0.00 0.00 90 1018.9
20260509041347 2 119 0.0 0.0 0.00 0.00 0.00 90 1018.8
20260509040621 2 119 0.0 0.0 0.00 0.00 0.00 90 1018.9
20260509040114 2 119 0.0 0.0 0.00 0.00 0.00 90 1018.9
20260509035609 2 119 0.0 0.0 0.00 0.00 0.00 90 1018.9
20260509035105 2 119 0.0 0.0 0.00 0.00 0.00 90 1018.9
20260509034605 2 119 0.0 0.0 0.00 0.00 0.00 90 1018.9
20260509034058 2 119 0.0 0.0 0.00 0.00 0.00 90 1019.0
20260509033812 2 119 0.0 0.0 0.00 0.00 0.00 90 1019.0
20260509033534 2 119 0.0 0.0 0.00 0.00 0.00 90 1019.0
20260509032540 2 119 0.0 0.0 0.00 0.00 0.00 90 1019.0
20260509032253 2 119 0.0 0.0 0.00 0.00 0.00 90 1019.0
20260509031528 2 118 0.0 0.0 0.00 0.00 0.00 90 1019.1
20260509031024 2 118 0.0 0.0 0.00 0.00 0.00 90 1019.1
20260509030517 2 118 0.0 0.0 0.00 0.00 0.00 90 1019.2
20260509030010 2 118 0.0 0.0 0.00 0.00 0.00 90 1019.1
20260509025504 2 118 0.0 0.0 0.00 0.00 0.00 90 1019.2
20260509024958 2 117 0.0 0.0 0.00 0.00 0.00 90 1019.1
20260509024455 2 116 0.0 0.0 0.00 0.00 0.00 90 1019.0
20260509023955 2 116 0.0 0.0 0.00 0.00 0.00 90 1019.0
20260509023448 2 116 0.0 0.0 0.00 0.00 0.00 90 1019.2
20260509022948 3 116 0.0 0.0 0.00 0.00 0.00 90 1019.0
20260509022447 3 116 0.0 0.0 0.00 0.00 0.00 90 1019.0
20260509021945 3 116 0.0 0.0 0.00 0.00 0.00 90 1019.1
20260509021444 3 116 0.0 0.0 0.00 0.00 0.00 90 1019.1
20260509020943 3 116 0.0 0.0 0.00 0.00 0.00 90 1019.1
20260509020440 3 115 0.0 0.0 0.00 0.00 0.00 90 1019.2
20260509015938 3 115 0.0 0.0 0.00 0.00 0.00 89 1019.3
20260509015437 3 115 0.0 0.0 0.00 0.00 0.00 89 1019.2
20260509014935 3 115 0.0 0.0 0.00 0.00 0.00 90 1019.2
20260509014651 3 115 0.0 0.0 0.00 0.00 0.00 90 1019.2
20260509013933 3 114 0.0 0.0 0.00 0.00 0.00 89 1019.3
20260509013433 3 115 0.0 0.0 0.00 0.00 0.00 90 1019.3
20260509012934 3 115 0.0 0.0 0.00 0.00 0.00 90 1019.3
20260509012432 3 114 0.0 0.0 0.00 0.00 0.00 89 1019.3
20260509011928 3 114 0.0 0.0 0.00 0.00 0.00 89 1019.3
20260509011427 3 114 0.0 0.0 0.00 0.00 0.00 89 1019.3
20260509010924 3 114 0.0 0.0 0.00 0.00 0.00 89 1019.3
20260509010422 3 114 0.0 0.0 0.00 0.00 0.00 89 1019.3
20260509005923 3 114 0.0 0.0 0.00 0.00 0.00 89 1019.3
20260509005424 4 114 0.0 0.0 0.00 0.00 0.00 89 1019.3
20260509004922 4 114 0.0 0.0 0.00 0.00 0.00 89 1019.2
20260509004646 4 114 0.0 0.0 0.00 0.00 0.00 89 1019.2
20260509003922 4 114 0.0 0.0 0.00 0.00 0.00 89 1019.2
20260509003420 4 114 0.0 0.0 0.00 0.00 0.00 89 1019.2
20260509002920 4 114 0.0 0.0 0.00 0.00 0.00 89 1019.2
20260509002900 4 114 0.0 0.0 0.00 0.00 0.00 89 1019.1
20260509002146 4 114 0.0 0.0 0.00 0.00 0.00 89 1019.2
20260509001418 4 114 0.0 0.0 0.00 0.00 0.00 89 1019.2
20260509000918 4 113 0.0 0.0 0.00 0.00 0.00 89 1019.2
20260509000419 5 113 0.0 0.0 0.00 0.00 0.00 89 1019.2
20260508235917 5 113 0.0 0.0 0.00 0.00 0.00 89 1019.1
20260508235416 5 113 0.0 0.0 0.00 0.00 0.00 89 1019.2
20260508234916 5 112 0.0 0.0 0.00 0.00 0.00 89 1019.2
20260508234418 5 112 0.0 0.0 0.00 0.00 0.00 89 1019.2
20260508233916 5 111 0.0 0.0 0.00 0.00 0.00 89 1019.2
20260508233417 5 111 0.0 0.0 0.00 0.00 0.00 89 1019.1
20260508232917 5 111 0.0 0.0 0.00 0.00 0.00 89 1019.1
20260508232642 5 110 0.0 0.0 0.00 0.00 0.00 89 1019.1
20260508231917 5 82 0.0 0.0 0.00 0.00 0.00 89 1019.1
20260508231417 5 82 0.0 0.0 0.00 0.00 0.00 88 1019.2
20260508230917 5 82 0.0 0.0 0.00 0.00 0.00 88 1019.3
20260508230641 5 82 0.0 0.0 0.00 0.00 0.00 88 1019.2
20260508225916 5 82 0.0 0.0 0.00 0.00 0.00 88 1019.2
20260508225414 6 82 0.0 0.0 0.00 0.00 0.00 88 1019.1
20260508224914 6 82 0.0 0.0 0.00 0.00 0.00 88 1019.2
20260508224413 6 82 0.0 0.0 0.00 0.00 0.00 88 1019.2
20260508223912 6 82 0.0 0.0 0.00 0.00 0.00 88 1019.2
20260508223633 6 78 0.0 0.0 0.00 0.00 0.00 88 1019.1
20260508222909 6 78 0.0 0.0 0.00 0.00 0.00 88 1019.1
20260508222409 6 78 0.0 0.0 0.00 0.00 0.00 88 1019.1
20260508221907 6 78 0.0 0.0 0.00 0.00 0.00 88 1019.0
20260508221405 6 78 0.0 0.0 0.00 0.00 0.00 88 1019.0
20260508220900 6 68 0.0 0.0 0.00 0.00 0.00 88 1019.0
20260508220848 6 68 0.0 0.0 0.00 0.00 0.00 88 1019.0
20260508215900 6 68 0.0 0.0 0.00 0.00 0.00 87 1019.0
20260508215358 6 68 0.0 0.0 0.00 0.00 0.00 87 1018.9
20260508214857 7 66 0.0 0.0 0.00 0.00 0.00 87 1019.0
20260508214353 7 66 0.0 0.0 0.00 0.00 0.00 87 1019.0
20260508214331 7 66 0.0 0.0 0.00 0.00 0.00 87 1019.0
20260508213348 7 66 0.0 0.0 0.00 0.00 0.00 87 1019.0
20260508212839 7 65 0.0 0.0 0.00 0.00 0.00 87 1019.1
20260508212333 7 65 0.0 0.0 0.00 0.00 0.00 87 1019.0
20260508211828 7 65 0.0 0.0 0.00 0.00 0.00 87 1019.0
20260508211543 7 65 0.0 0.0 0.00 0.00 0.00 86 1019.0
20260508211035 7 65 0.0 0.0 0.00 0.00 0.00 87 1018.9
20260508210309 7 65 0.0 0.0 0.00 0.00 0.00 86 1018.8
20260508205804 8 65 0.0 0.0 0.00 0.00 0.00 86 1018.8
20260508205530 8 65 0.0 0.0 0.00 0.00 0.00 86 1018.6
20260508204753 8 65 0.0 0.0 0.00 0.00 0.00 86 1018.8
20260508204247 8 55 0.0 0.0 0.00 0.00 0.00 85 1018.7
20260508203745 8 49 0.0 0.0 0.00 0.00 0.00 86 1018.7
20260508203503 8 49 0.0 0.0 0.00 0.00 0.00 85 1018.7
20260508202742 8 49 0.0 0.0 0.00 0.00 0.00 85 1018.7
20260508202243 8 21 0.0 0.0 0.00 0.00 0.00 85 1018.7
20260508201742 9 21 0.0 0.0 0.00 0.00 0.00 85 1018.7
20260508201510 9 21 0.0 0.0 0.00 0.00 0.00 85 1018.7
20260508200737 9 21 0.0 0.0 0.00 0.00 0.00 84 1018.6
20260508200236 9 21 0.0 0.0 0.00 0.00 0.00 84 1018.5
20260508195736 9 21 0.0 0.0 0.00 0.00 0.00 84 1018.6
20260508195236 9 21 0.0 0.0 0.00 0.00 0.00 84 1018.5
20260508194957 10 21 0.0 0.0 0.00 0.00 0.00 83 1018.5
20260508194232 10 21 0.0 0.0 0.00 0.00 0.00 83 1018.4
20260508193730 10 21 0.0 0.0 0.00 0.00 0.00 82 1018.2
20260508193230 10 21 0.0 0.0 0.00 0.00 0.00 82 1018.3
20260508192948 10 21 0.0 0.0 0.00 0.00 0.00 81 1018.2
20260508192230 10 21 0.0 0.0 0.00 0.00 0.00 81 1018.1
20260508191729 11 20 0.0 0.0 0.00 0.00 0.00 80 1018.0
20260508191224 11 20 0.0 0.0 0.00 0.00 0.00 79 1018.0
20260508190718 11 20 0.0 0.0 0.00 0.00 0.00 78 1017.9
20260508190211 12 20 0.0 0.0 0.00 0.00 0.00 77 1017.8
20260508185705 12 20 0.0 0.0 0.00 0.00 0.00 75 1017.8
20260508185159 12 20 0.0 0.0 0.00 0.00 0.00 74 1017.7
20260508184653 13 37 0.0 0.0 0.00 0.00 0.00 74 1017.7
20260508184149 13 37 0.0 0.0 0.00 0.00 0.00 74 1017.7
20260508183643 13 37 0.0 0.0 0.00 0.00 0.00 73 1017.7
20260508183136 13 37 0.0 0.0 0.00 0.00 0.00 73 1017.6